Location: Pedholt
(56.0260°N, 10.2097°E)
Time: 07:36:45
(UTC+00:00)

SR - Pass Details

Date: 30 July 2021
Orbit: 581 x 874 km, 66.7° (Epoch: 24 September)

Event Time Altitude Azimuth Distance (km) Brightness Sun altitude
Rises 15:43:45 0° 308° (NW) 3,127 ? 29.3°
Reaches altitude 10° 15:47:26 10° 281° (WNW) 2,129 ? 28.8°
Maximum altitude 15:49:32 13° 255° (WSW) 1,900 ? 28.5°
Drops below altitude 10° 15:51:34 10° 229° (SW) 2,046 ? 28.2°
Sets 15:54:57 0° 201° (SSW) 2,891 ? 27.7°
